Location: Ferchesar
(52.6477°N, 12.4298°E)
Time: 20:04:53
(UTC+01:00)

Tiros 1 - Pass Details

Date: 07 December 2021
Orbit: 629 x 664 km, 48.4° (Epoch: 18 January)

Event Time Altitude Azimuth Distance (km) Brightness Sun altitude
Rises 17:42:04 0° 219° (SW) 2,911 11.5 -15.0°
Reaches altitude 10° 17:44:40 10° 207° (SSW) 2,009 10.3 -15.3°
Maximum altitude 17:48:28 25° 151° (SSE) 1,272 8.5 -15.9°
Enters shadow 17:50:22 19° 116° (ESE) 1,497 8.6 -16.2°
